Location: Staunton
(38.1490°N, 79.0720°W)
Time: 16:29:33
(UTC-04:00)

ISS - Visible Passes

Search period start: 25 September 2022 00:00
Search period end: 05 October 2022 00:00
Orbit: 414 x 417 km, 51.6° (Epoch: 25 September)

Date Brightness Start Highest point End Pass type
(mag) Time Alt. Az. Time Alt. Az. Time Alt. Az.
27 Sep -1.2 20:47:41 10° NNW 20:49:02 13° N 20:49:02 13° N visible
28 Sep -1.2 19:59:37 10° N 20:00:28 11° NNE 20:01:19 10° NNE visible
28 Sep -0.5 21:34:50 10° NW 21:35:05 12° NW 21:35:05 12° NW visible
29 Sep -1.8 20:46:22 10° NNW 20:48:17 21° N 20:48:17 21° N visible
30 Sep -1.7 19:57:57 10° NNW 20:00:13 17° NNE 20:01:31 14° NE visible
30 Sep -0.5 21:33:57 10° NW 21:34:24 13° NW 21:34:24 13° NW visible
01 Oct -2.7 20:45:15 10° NW 20:47:42 40° NNW 20:47:42 40° NNW visible
02 Oct -2.8 19:56:39 10° NW 19:59:43 33° NNE 20:01:03 23° ENE visible
02 Oct -0.4 21:33:32 10° WNW 21:33:57 12° W 21:33:57 12° W visible
03 Oct -2.8 20:44:27 10° WNW 20:47:24 45° WSW 20:47:24 45° WSW visible
04 Oct -3.8 19:55:34 10° NW 19:58:56 90° SE 20:00:58 22° SE visible
